HST 1 20580U 90037B 24300.00397504 .00013260 00000-0 58046-3 0 9999 2 20580 28.4669 187.0727 0002913 25.3854 334.6882 15.20503902697201 ISS (ZARYA) 1 25544U 98067A 24300.37653146 .00035408 00000-0 61498-3 0 9995 2 25544 51.6400 25.5829 0009230 107.6057 342.0353 15.50445611478897 CXO 1 25867U 99040B 24302.72651146 .00000817 00000-0 00000+0 0 9998 2 25867 44.1830 143.0661 8749087 303.3751 0.1470 0.37813506 26223